Home > Weather > Odessa > Past weeks

Flag for USA Past Weather in Odessa, Texas, USA — Yesterday and Last 2 Weeks

Now
85 °F

Sunny.


Feels Like: 85 °F
Forecast: 71 / 86 °F
Wind: 22 mph from Northwest

Location: Odessa-Schlemeyer Field

Current Time: Aug 24, 2016 at 4:50:55 PM

Latest Report: Aug 24, 2016 at 3:53 PM


Visibility: 10 mi

Pressure: 29.98 "Hg (27.14 "Hg at 882m altitude)

Humidity: 43%

Dew Point: 60 °F

Location of OdessaLocation

Past Weather in Odessa — Graph

°F

Odessa Temperature Yesterday

Maximum temperature yesterday: 89 °F (at 4:53 PM)
Minimum temperature yesterday: 74 °F (at 7:53 AM)
Average temperature yesterday: 79 °F

High & Low Weather Summary for the Past Weeks

 TemperatureHumidityPressure
High99 °F (Aug 11, 3:53 PM)91% (Aug 17, 5:53 AM)30.16 "Hg (Aug 17, 5:53 AM)
Low63 °F (Aug 15, 6:53 AM)20% (Aug 16, 5:53 PM)29.75 "Hg (Aug 19, 6:53 PM)
Average79 °F58%29.93 "Hg
* Reported Aug 9 2:53 PM — Aug 24 2:53 PM, Odessa, Weather by CustomWeather, © 2016

Note: Actual official high and low records may vary slightly from our data, if they occured in-between our weather recording intervals... More about our weather records

Advertising

Odessa Weather History for the Previous 24 Hours

Scroll right to see more
 ConditionsComfort  
Time TempWeatherWind HumidityBarometerVisibility
2:53 PM
Wed, Aug 24
86 °FSunny.13 mph42%29.99 "Hg10 mi
1:53 PM85 °FSunny.14 mph45%30.00 "Hg10 mi
12:53 PM83 °FSunny.10 mph46%30.01 "Hg10 mi
11:53 AM80 °FSunny.9 mph52%30.02 "Hg10 mi
10:53 AM77 °FSunny.6 mph56%30.03 "Hg10 mi
9:53 AM73 °FPassing clouds.3 mph66%30.03 "Hg10 mi
8:53 AM69 °FMore clouds than sun.8 mph81%30.02 "Hg10 mi
7:53 AM67 °FPartly cloudy.7 mph81%30.06 "Hg10 mi
6:53 AM66 °FThunderstorms. Fog.17 mph87%30.05 "Hg6 mi
5:53 AM69 °FThundershowers. Passing clouds.10 mph87%29.97 "Hg10 mi
4:53 AM71 °FThundershowers. Partly cloudy.8 mph84%29.97 "Hg10 mi
3:53 AM72 °FPartly cloudy.8 mph84%29.97 "Hg10 mi
2:53 AM74 °FMostly cloudy.3 mph79%29.99 "Hg10 mi
1:53 AM74 °FPartly cloudy.7 mph76%30.00 "Hg10 mi
12:53 AM74 °FOvercast.5 mph82%30.00 "Hg10 mi
11:53 PM
Tue, Aug 23
74 °FPassing clouds.7 mph82%30.01 "Hg10 mi
10:53 PM75 °FThundershowers. Passing clouds.9 mph79%30.01 "Hg10 mi
9:53 PM77 °FLight rain. Clear.7 mph82%29.97 "Hg9 mi
8:53 PM78 °FPartly sunny.6 mph76%29.94 "Hg10 mi
7:53 PM82 °FLight rain. Partly sunny.9 mph58%29.92 "Hg10 mi
6:53 PM81 °FScattered clouds.8 mph62%29.90 "Hg10 mi
5:53 PM82 °FLight rain. Partly sunny.9 mph60%29.92 "Hg10 mi
4:53 PM89 °FPassing clouds.20 mph42%29.91 "Hg10 mi
Weather by CustomWeather, © 2016

See weather overviewHow to use our weather pages